Tracking 28081 objects as of 27-Sep-2023
HD Live streaming from Space Station
objects crossing your sky now

INTELSAT 3-F7

Track INTELSAT 3-F7 now!
INTELSAT 3-F7 is classified as:


NORAD ID: 4376
Int'l Code: 1970-032A
Perigee: 35,822.9 km
Apogee: 35,829.0 km
Inclination: 0.3 °
Period: 1,437.7 minutes
Semi major axis: 42196 km
RCS: 0.003 m2 (small)
Launch date: April 23, 1970
Source: International Telecommunications Satellite Organization (ITSO)
Launch site: AIR FORCE EASTERN TEST RANGE (AFETR)
Your satellite tracking list
Your tracking list is empty




NASA's NSSDC Master Catalog

Two Line Element Set (TLE):
1 04376U 70032A   23268.82952697  .00000077  00000-0  00000-0 0  9995
2 04376   0.3386 218.0647 0000715  11.5134 130.4293  1.00157031 37389
Source of the keplerian elements: AFSPC